Location: Newark
(49.2191°N, 12.6671°E)
Time: 03:42:15
(UTC+00:00)

Transit 4A - Pass Details

Date: 27 January 2020
Orbit: 872 x 973 km, 66.8° (Epoch: 17 February)

Event Time Altitude Azimuth Distance (km) Brightness Sun altitude
Rises 08:11:56 0° 276° (W) 3,514 10.5 10.2°
Reaches altitude 10° 08:15:17 10° 294° (WNW) 2,559 9.7 10.6°
Maximum altitude 08:19:20 19° 338° (NNW) 1,999 9.2 11.1°
Drops below altitude 10° 08:23:22 10° 22° (NNE) 2,537 10.0 11.5°
Sets 08:26:40 0° 40° (NE) 3,472 10.8 11.9°
